Location: Unspecified
(51.0950°N, 12.9690°E)
Time: 06:27:04
(UTC+00:00)

NANOSAT C BR1 - Pass Details

Date: 01 May 2024
Orbit: 556 x 561 km, 98.1° (Epoch: 19 May)

Event Time Altitude Azimuth Distance (km) Brightness Sun altitude
Rises 02:05:24 0° 27° (NNE) 2,774 ? -13.0°
Reaches altitude 10° 02:08:04 10° 45° (NE) 1,872 ? -12.7°
Maximum altitude 02:11:01 19° 92° (E) 1,366 ? -12.3°
Drops below altitude 10° 02:13:57 10° 139° (SE) 1,861 ? -12.0°
Sets 02:16:35 0° 157° (SSE) 2,751 ? -11.7°
